Regional Weather Roundup
Issued by NWS

Home | Current Version | Previous Version | Graphics & Text | Print | Product List | Glossary On
Versions: 1 2 3 4 5 6 7 8 9 10 11 12 13 14 15 16 17 18 19 20 21 22 23 24 25 26 27 28 29 30 31 32 33 34 35 36 37 38 39 40 41 42 43 44 45 46 47 48 49 50
314
ASUS43 KDTX 200201
RWRMI
MICHIGAN HOURLY REGIONAL WEATHER ROUNDUP
NATIONAL WEATHER SERVICE DETROIT/PONTIAC MI
1000 PM EDT SAT AUG 19 2017

NOTE: "FAIR" INDICATES FEW OR NO CLOUDS BELOW 12,000 FEET WITH NO
SIGNIFICANT WEATHER AND/OR OBSTRUCTION TO VISIBILITY.

MIZ047>049-052>055-059>063-066>070-074>076-081>083-200300-
SOUTHEAST LOWER MICHIGAN

CITY           SKY/WX    TMP DP  RH WIND       PRES   REMARKS
ADRIAN         CLEAR     66  60  81 CALM      30.00R
ALMA           CLEAR     68  60  76 SW7       29.97R
ANN ARBOR      FOG       61  60  97 CALM      29.97S VSB 1/2
BAD AXE        CLEAR     65  59  81 CALM      29.94R
CARO           CLEAR     61  59  93 CALM      29.95R
DETROIT CITY   CLEAR     71  58  63 SW3       29.97R
DETROIT        PTCLDY    73  57  57 NW3       29.98R
FLINT          CLEAR     68  60  75 SW5       29.97R
GROSSE ILE     CLEAR     69  59  69 CALM      29.96S
HILLSDALE      CLOUDY    63  57  82 CALM      30.00R
HOWELL         CLEAR     68  59  71 CALM      29.98R

CITY           SKY/WX    TMP DP  RH WIND       PRES   REMARKS
JACKSON        CLEAR     64  59  83 SW5       29.99R
LAMBERTVILLE   CLEAR     64  61  88 CALM      29.98R
LANSING        CLEAR     70  59  68 W8        29.99R
LAPEER         FAIR      65  60  82 CALM      29.97R
MASON          CLEAR     66  60  80 SE3       29.99R
MONROE         CLEAR     64  60  86 CALM      29.96S
MT. CLEMENS    PTCLDY    65  59  81 SW5       29.95R
PONTIAC        CLEAR     70  60  70 CALM      29.97R
PORT HOPE        N/A     67  61  81 S3        29.91R
PORT HURON     CLEAR     63  59  88 CALM      29.97R
TRI CITIES     CLEAR     70  62  76 SW5       29.95R
MIDLAND        FAIR      64  60  85 CALM      29.94R
TROY           CLEAR     73  56  56 CALM      29.99R
SAGINAW HB     CLEAR     68  61  77 SW7       29.95R
$$
MIZ043>046-050>051-056>058-064>065-071>073-077>080-200300-
SOUTHWEST LOWER MICHIGAN

CITY           SKY/WX    TMP DP  RH WIND       PRES   REMARKS
BATTLE CREEK   CLEAR     67  59  75 NW3       30.00R
BENTON HARBOR  CLEAR     63  60  90 CALM      29.98R
BIG RAPIDS     CLEAR     64  59  82 CALM      29.96R
COLDWATER      CLEAR     65  60  85 CALM      30.00R
FREMONT        FAIR      64  62  96 CALM      29.97R
HOLLAND        CLEAR     64  61  90 CALM      29.98R
GRAND RAPIDS   CLEAR     67  60  78 S3        29.98R
IONIA          FAIR      67  59  75 SW5       29.98R
KALAMAZOO      CLEAR     67  55  65 NW5       29.99R
LUDINGTON      CLEAR     68  61  77 SW7       29.94R
MARSHALL       CLEAR     65  61  86 CALM      29.99R
MOUNT PLEASANT CLEAR     70  58  66 SW3       29.96R
MUSKEGON       CLEAR     67  63  87 S3        29.97R
SOUTH HAVEN    CLEAR     64  62  94 CALM      29.99R
$$
MIZ016>042-200300-
NORTHERN LOWER MICHIGAN

CITY           SKY/WX    TMP DP  RH WIND       PRES   REMARKS
ALPENA         CLEAR     64  62  93 CALM      29.91R
BEAVER ISLAND  CLOUDY    67  61  80 S5        29.90R
BELLAIRE       RAIN      69  63  83 N3        29.93R
CADILLAC       CLEAR     66  61  85 SW3       29.96R
CHARLEVOIX     LGT RAIN  67  66  99 S5        29.94R
FRANKFORT      CLEAR     70  67  91 SW5       29.93R
GAYLORD        CLOUDY    64  59  83 CALM      29.94R
GRAYLING       MOCLDY    62  58  86 CALM      29.96R
HARBOR SPRINGS CLOUDY    67  66  95 SW3       29.91S
HOUGHTON LAKE  CLEAR     68  59  73 W5        29.96R
MANISTEE       CLEAR     67  63  87 S3        29.93R
OSCODA         PTCLDY    65  63  93 CALM      29.91R
PELLSTON       CLEAR     66  63  90 W5        29.91R
ROGERS CITY    CLEAR     62  60  94 CALM      29.91R
TRAVERSE CITY  PTCLDY    69  62  78 SW3       29.91R
$$
MIZ007>008-015-200300-
EASTERN UPPER MICHIGAN

CITY           SKY/WX    TMP DP  RH WIND       PRES   REMARKS
KINROSS        CLEAR     64  63  96 SW3       29.90R
MACKINAC ISLAN CLEAR     65  65 100 W7        29.90R
NEWBERRY       CLEAR     62  62  97 SW5       29.89R
S. S. MARIE    CLEAR     63  60  90 CALM      29.88R
MUNISING         N/A     64  63  96 S6        29.88R
$$
MIZ004>006-011>014-085-200300-
CENTRAL UPPER MICHIGAN

CITY           SKY/WX    TMP DP  RH WIND       PRES   REMARKS
MANISTIQUE     CLEAR     64  58  81 S3        29.88S
ESCANABA       CLEAR     66  65  96 CALM      29.88R
MENOMINEE      CLEAR     71  62  73 SW5       29.90R
SAWYER-GWINN   CLEAR     68  63  83 CALM      29.90R
$$
MIZ001>003-009>011-084-200300-
WESTERN UPPER MICHIGAN

CITY           SKY/WX    TMP DP  RH WIND       PRES   REMARKS
IRON MOUNTAIN  CLEAR     63  58  83 CALM      29.90R
HOUGHTON         N/A     65  56  72 W5        29.86R
COPPER HARBOR    N/A     65  58  78 CALM      29.84R
IRONWOOD       CLEAR     63  61  93 CALM      29.90R
$$

ABBREVIATIONS USED IN REMARKS
   TC - TEMPERATURE IN CELSIUS
  WCI - WIND CHILL INDEX
   HX - HEAT INDEX
  VSB - VISIBILITY





USA.gov is the U.S. government's official web portal to all federal, state and local government web resources and services.